GW5131 Weather Reports


Display with metric or nautical units.
time (UTC)temp
F
wind
direction
speed
MPH
gust
MPH
rain 1hr
in
rain 24hr
in
rain mn
in
humidity
%
barometer
mb
20260904141201 82 160 3.0 3.0 0.00 0.01 0.01 85 982.7
20260904140657 81 240 3.0 3.0 0.00 0.01 0.01 86 982.4
20260904140151 81 52 1.0 2.0 0.00 0.01 0.01 89 982.4
20260904135650 80 145 1.0 1.0 0.00 0.01 0.01 92 982.4
20260904135146 80 145 1.0 2.0 0.00 0.01 0.01 95 982.3
20260904134642 79 145 1.0 1.0 0.00 0.01 0.01 94 982.5
20260904134140 79 145 1.0 2.0 0.00 0.01 0.01 95 982.7
20260904133635 79 145 1.0 2.0 0.00 0.01 0.01 94 982.5
20260904133131 80 162 0.0 1.0 0.00 0.01 0.01 94 982.4
20260904132626 78 162 1.0 2.0 0.00 0.01 0.01 95 982.4
20260904132126 78 162 0.0 2.0 0.00 0.01 0.01 93 982.6
20260904131625 77 162 1.0 2.0 0.00 0.01 0.01 94 982.6
20260904131121 77 162 1.0 1.0 0.00 0.01 0.01 96 982.5
20260904130620 76 162 1.0 2.0 0.00 0.01 0.01 96 982.6
20260904130115 76 184 0.0 1.0 0.00 0.01 0.01 96 982.5
20260904125612 75 184 0.0 1.0 0.00 0.01 0.01 97 982.5
20260904125107 74 184 1.0 2.0 0.00 0.01 0.01 99 982.7
20260904124602 74 218 0.0 0.0 0.00 0.01 0.01 99 982.8
20260904124057 73 218 0.0 0.0 0.00 0.01 0.01 99 982.9
20260904123552 73 218 0.0 0.0 0.00 0.01 0.01 99 982.9
20260904123048 73 218 0.0 0.0 0.00 0.01 0.01 99 982.8
20260904122547 72 218 0.0 0.0 0.00 0.01 0.01 99 982.8
20260904122042 72 218 0.0 0.0 0.00 0.01 0.01 99 982.8
20260904121538 72 218 0.0 0.0 0.00 0.01 0.01 99 982.8
20260904121033 72 218 0.0 0.0 0.00 0.01 0.01 99 982.7
20260904120530 71 218 0.0 0.0 0.00 0.01 0.01 99 982.8
20260904120025 70 218 0.0 0.0 0.00 0.01 0.01 99 982.9
20260904115520 70 218 0.0 0.0 0.00 0.01 0.01 99 982.9
20260904115015 70 218 0.0 0.0 0.00 0.01 0.01 99 982.8
20260904114510 70 218 0.0 0.0 0.05 0.01 0.01 99 982.7
20260904114005 69 218 0.0 0.0 0.05 0.01 0.01 99 982.5
20260904113504 70 218 0.0 0.0 0.00 0.00 0.00 99 982.7
20260904112957 69 218 0.0 0.0 0.00 0.00 0.00 99 982.6
20260904112453 69 218 1.0 2.0 0.00 0.00 0.00 99 982.8
20260904111943 68 218 0.0 1.0 0.00 0.00 0.00 99 982.7
20260904111439 68 218 0.0 0.0 0.00 0.00 0.00 99 982.2
20260904110934 68 218 0.0 0.0 0.00 0.00 0.00 99 982.2
20260904110433 68 218 0.0 0.0 0.00 0.00 0.00 99 982.2
20260904105923 69 218 0.0 0.0 0.00 0.00 0.00 99 982.3
20260904105418 68 218 1.0 2.0 0.00 0.00 0.00 99 982.2
20260904104913 67 218 0.0 1.0 0.00 0.00 0.00 99 982.3
20260904104408 67 218 0.0 0.0 0.00 0.00 0.00 99 982.0
20260904103905 67 218 0.0 0.0 0.00 0.00 0.00 99 982.0
20260904103405 68 218 0.0 0.0 0.00 0.00 0.00 99 981.9
20260904102901 68 218 0.0 0.0 0.00 0.00 0.00 99 981.9
20260904102355 68 218 0.0 0.0 0.00 0.00 0.00 99 981.9
20260904101851 68 218 0.0 0.0 0.00 0.00 0.00 99 981.8
20260904101348 68 218 0.0 0.0 0.00 0.00 0.00 99 981.8
20260904100843 68 218 0.0 0.0 0.00 0.00 0.00 99 981.8
20260904100339 68 218 0.0 0.0 0.00 0.00 0.00 99 981.8
20260904095833 68 218 0.0 0.0 0.00 0.00 0.00 99 981.7
20260904095328 68 218 0.0 0.0 0.00 0.00 0.00 99 981.7
20260904094824 68 218 0.0 0.0 0.00 0.00 0.00 99 981.6
20260904094318 68 218 0.0 0.0 0.00 0.00 0.00 99 981.6
20260904093815 68 218 0.0 0.0 0.00 0.00 0.00 99 981.8
20260904093314 68 218 0.0 0.0 0.00 0.00 0.00 99 981.8
20260904092809 68 218 0.0 0.0 0.00 0.00 0.00 99 981.6
20260904092306 68 218 0.0 0.0 0.00 0.00 0.00 99 981.7
20260904091802 69 218 0.0 0.0 0.00 0.00 0.00 99 981.8
20260904091256 69 218 0.0 0.0 0.00 0.00 0.00 99 981.8
20260904090752 68 218 0.0 0.0 0.00 0.00 0.00 99 981.7
20260904090248 68 218 0.0 0.0 0.00 0.00 0.00 99 981.6
20260904085742 69 218 0.0 0.0 0.00 0.00 0.00 99 981.6
20260904085237 69 218 0.0 0.0 0.00 0.00 0.00 99 981.6
20260904084732 69 218 0.0 0.0 0.00 0.00 0.00 99 981.7
20260904084228 69 218 0.0 0.0 0.00 0.00 0.00 99 981.5
20260904083724 69 218 0.0 0.0 0.00 0.00 0.00 99 981.6
20260904083220 69 218 0.0 0.0 0.00 0.00 0.00 99 981.5
20260904082714 69 218 0.0 0.0 0.00 0.00 0.00 99 981.6
20260904082210 69 218 0.0 0.0 0.00 0.00 0.00 99 981.6
20260904081706 69 218 0.0 0.0 0.00 0.00 0.00 99 981.3
20260904081201 69 218 0.0 0.0 0.00 0.00 0.00 99 981.4
20260904080656 69 218 0.0 0.0 0.00 0.00 0.00 99 981.4
20260904080152 69 218 0.0 0.0 0.00 0.00 0.00 99 981.2
20260904075649 69 218 0.0 0.0 0.00 0.00 0.00 99 981.3
20260904075149 69 218 0.0 0.0 0.00 0.00 0.00 99 981.3
20260904074642 69 218 0.0 0.0 0.00 0.00 0.00 99 981.1
20260904074136 69 218 0.0 0.0 0.00 0.00 0.00 99 981.3
20260904073632 69 218 0.0 0.0 0.00 0.00 0.00 99 981.3
20260904073129 69 218 0.0 0.0 0.00 0.00 0.00 99 981.3
20260904072624 70 218 0.0 0.0 0.00 0.00 0.00 99 981.3
20260904072119 69 218 0.0 0.0 0.00 0.00 0.00 99 981.3
20260904071614 70 218 0.0 0.0 0.00 0.00 0.00 99 981.4
20260904071109 70 218 0.0 0.0 0.00 0.00 0.00 99 981.3
20260904070603 70 218 0.0 0.0 0.00 0.00 0.00 99 981.2
20260904070057 69 218 0.0 0.0 0.00 0.00 0.00 99 981.3
20260904065552 69 218 1.0 2.0 0.00 0.00 0.00 99 981.4
20260904065048 69 218 0.0 0.0 0.00 0.00 0.00 99 981.1
20260904064544 70 218 0.0 0.0 0.00 0.00 0.00 99 981.2
20260904064038 70 218 0.0 0.0 0.00 0.00 0.00 99 981.3
20260904063535 69 218 0.0 0.0 0.00 0.00 0.00 99 981.2
20260904063030 70 218 0.0 0.0 0.00 0.00 0.00 99 981.1
20260904062526 70 218 0.0 0.0 0.00 0.00 0.00 99 981.3
20260904062021 70 218 0.0 0.0 0.00 0.00 0.00 99 981.2
20260904061517 70 218 0.0 0.0 0.00 0.00 0.00 99 981.0
20260904061013 70 218 0.0 0.0 0.00 0.00 0.00 99 981.2
20260904060509 70 218 0.0 0.0 0.00 0.00 0.00 99 981.4
20260904060005 70 218 0.0 0.0 0.00 0.00 0.00 99 981.5
20260904055500 71 218 0.0 0.0 0.00 0.00 0.00 99 981.7
20260904054955 71 218 0.0 0.0 0.00 0.00 0.00 99 981.9
20260904054451 71 218 0.0 0.0 0.00 0.00 0.00 99 981.9
20260904053947 71 218 0.0 0.0 0.00 0.00 0.00 99 981.9
20260904053446 71 218 0.0 0.0 0.00 0.00 0.00 99 982.0
20260904052942 71 218 0.0 0.0 0.00 0.00 0.00 99 981.9
20260904052438 71 218 0.0 0.0 0.00 0.00 0.00 99 982.1
20260904051934 72 218 0.0 0.0 0.00 0.00 0.00 99 982.2
20260904051430 72 218 0.0 1.0 0.00 0.00 0.00 99 982.4
20260904050929 72 218 1.0 2.0 0.00 0.00 0.00 99 982.5
20260904050426 73 217 0.0 1.0 0.00 0.00 0.00 99 982.5
20260904045926 73 107 1.0 1.0 0.00 0.00 0.00 99 982.5
20260904045421 73 107 0.0 1.0 0.00 0.00 0.00 99 982.6
20260904044920 73 141 1.0 6.0 0.00 0.00 0.00 98 982.6
20260904044417 73 21 1.0 3.0 0.00 0.00 0.00 99 982.6
20260904043913 74 311 1.0 3.0 0.00 0.00 0.00 99 982.6
20260904043409 74 111 1.0 3.0 0.00 0.00 0.00 99 982.6
20260904042905 74 279 0.0 0.0 0.00 0.00 0.00 99 982.7
20260904042401 74 279 0.0 0.0 0.00 0.00 0.00 99 982.6
20260904041901 74 279 0.0 0.0 0.00 0.00 0.00 99 982.5
20260904041357 74 279 1.0 2.0 0.00 0.00 0.00 99 982.2
20260904040853 74 50 0.0 0.0 0.00 0.00 0.00 99 982.3
20260904040348 73 38 0.0 1.0 0.24 0.12 0.12 99 982.6
20260904035844 73 40 0.0 1.0 0.24 0.12 0.12 99 982.3
20260904035340 73 39 0.0 0.0 0.00 0.08 0.08 99 982.4
20260904034839 73 39 0.0 2.0 0.00 0.08 0.08 99 982.5
20260904034334 73 47 1.0 1.0 0.00 0.08 0.08 99 982.1
20260904033830 73 47 0.0 1.0 0.00 0.08 0.08 99 981.8
20260904033326 73 47 1.0 1.0 0.00 0.08 0.08 99 981.8
20260904032822 73 69 0.0 0.0 0.00 0.08 0.08 99 981.8
20260904032323 73 69 0.0 0.0 0.00 0.08 0.08 99 981.9
20260904031816 74 69 0.0 0.0 0.00 0.08 0.08 99 981.9
20260904031312 74 68 0.0 1.0 0.00 0.08 0.08 99 982.2
20260904030808 75 143 0.0 1.0 0.26 0.08 0.08 99 982.3
20260904030303 76 245 4.0 4.0 0.50 0.08 0.08 96 981.9
20260904025759 73 29 3.0 6.0 0.07 0.01 0.01 99 982.4
20260904025254 73 309 0.0 0.0 0.00 0.00 0.00 99 981.8
20260904024749 73 309 0.0 0.0 0.00 0.00 0.00 99 981.8
20260904024245 74 309 0.0 0.0 0.00 0.00 0.00 99 982.0
20260904023741 73 309 0.0 0.0 0.00 0.00 0.00 99 982.2
20260904023237 73 309 0.0 0.0 0.00 0.00 0.00 99 982.3
20260904022731 73 309 0.0 0.0 0.00 0.00 0.00 99 982.1
20260904022228 73 309 0.0 0.0 0.00 0.00 0.00 99 982.0
20260904021724 73 309 0.0 0.0 0.00 0.00 0.00 99 981.9
20260904021223 73 309 0.0 0.0 0.00 0.00 0.00 99 982.1
20260904020719 74 309 0.0 0.0 0.00 0.00 0.00 99 982.0
20260904020218 74 309 0.0 0.0 0.00 0.00 0.00 99 982.0
20260904015718 74 309 0.0 0.0 0.00 0.00 0.00 99 981.9
20260904015213 74 309 0.0 0.0 0.00 0.00 0.00 99 981.8
20260904014711 74 309 0.0 0.0 0.00 0.00 0.00 99 982.0
20260904014206 74 309 0.0 0.0 0.00 0.00 0.00 99 982.0
20260904013703 74 309 0.0 0.0 0.00 0.00 0.00 99 981.9
20260904013159 74 309 0.0 0.0 0.00 0.00 0.00 99 981.7
20260904012654 75 309 0.0 0.0 0.00 0.00 0.00 99 981.8
20260904012153 75 309 0.0 0.0 0.00 0.00 0.00 99 981.7
20260904011652 75 309 0.0 0.0 0.00 0.00 0.00 99 981.5
20260904011148 75 309 0.0 0.0 0.00 0.00 0.00 99 981.5
20260904010643 75 309 0.0 0.0 0.00 0.00 0.00 99 981.5
20260904010140 76 309 0.0 0.0 0.00 0.00 0.00 99 981.4
20260904005635 76 309 0.0 0.0 0.00 0.00 0.00 99 981.5
20260904005131 76 309 0.0 0.0 0.00 0.00 0.00 99 981.5
20260904004626 76 309 0.0 0.0 0.00 0.00 0.00 99 981.5
20260904004125 76 309 0.0 0.0 0.00 0.00 0.00 99 981.5
20260904003621 76 309 0.0 0.0 0.00 0.00 0.00 98 981.3
20260904003117 76 309 0.0 0.0 0.00 0.00 0.00 98 981.2
20260904002613 76 309 0.0 0.0 0.00 0.00 0.00 98 981.4
20260904002108 77 309 0.0 0.0 0.00 0.00 0.00 97 981.4
20260904001603 77 309 0.0 0.0 0.00 0.00 0.00 97 981.5
20260904001102 77 309 0.0 0.0 0.00 0.00 0.00 97 981.4
20260904000556 78 309 0.0 0.0 0.00 0.00 0.00 96 981.8
20260904000053 78 309 0.0 0.0 0.00 0.00 0.00 96 981.8
20260903235552 78 309 0.0 0.0 0.00 0.00 0.00 96 981.8
20260903235049 78 309 0.0 0.0 0.00 0.00 0.00 96 981.9
20260903234543 79 309 0.0 0.0 0.00 0.00 0.00 94 981.8
20260903234039 79 309 0.0 0.0 0.00 0.00 0.00 94 981.7
20260903233535 80 309 0.0 0.0 0.00 0.00 0.00 93 981.6
20260903233031 80 309 0.0 0.0 0.00 0.00 0.00 92 981.7
20260903232526 80 309 0.0 0.0 0.00 0.00 0.00 92 981.6
20260903232020 80 309 0.0 0.0 0.00 0.00 0.00 91 981.7
20260903231514 80 309 0.0 0.0 0.00 0.00 0.00 91 981.4
20260903231010 81 309 0.0 0.0 0.00 0.00 0.00 91 981.3
20260903230506 81 309 0.0 0.0 0.00 0.00 0.00 90 981.2
20260903230004 81 309 0.0 1.0 0.00 0.00 0.00 90 981.2
20260903225502 82 309 0.0 0.0 0.00 0.00 0.00 88 981.0
20260903224959 82 309 0.0 1.0 0.00 0.00 0.00 88 981.1
20260903224454 82 309 0.0 1.0 0.00 0.00 0.00 88 981.3
20260903223950 82 309 0.0 1.0 0.00 0.00 0.00 86 981.2
20260903223449 83 309 0.0 0.0 0.00 0.00 0.00 85 981.1
20260903222948 83 309 1.0 2.0 0.00 0.00 0.00 84 980.9
20260903222444 83 309 0.0 1.0 0.00 0.00 0.00 85 980.7
20260903221943 83 309 1.0 1.0 0.00 0.00 0.00 84 980.6
20260903221438 85 309 2.0 2.0 0.00 0.00 0.00 82 980.4
20260903220936 87 309 1.0 1.0 0.00 0.00 0.00 78 980.3
20260903220435 85 309 1.0 3.0 0.00 0.00 0.00 75 980.3
20260903215933 86 328 2.0 3.0 0.00 0.00 0.00 79 980.3
20260903215430 88 328 1.0 2.0 0.00 0.00 0.00 74 980.2
20260903214928 88 329 0.0 1.0 0.00 0.00 0.00 72 980.2
20260903214424 89 329 1.0 2.0 0.00 0.00 0.00 70 980.1
20260903213923 90 329 0.0 1.0 0.00 0.00 0.00 73 980.0
20260903213419 91 328 0.0 1.0 0.00 0.00 0.00 67 980.0
20260903212915 91 61 0.0 3.0 0.00 0.00 0.00 69 979.9
20260903212410 91 130 2.0 2.0 0.00 0.00 0.00 65 980.2
20260903211905 91 158 1.0 4.0 0.00 0.00 0.00 67 980.4
20260903211401 91 313 3.0 4.0 0.00 0.00 0.00 61 980.3
20260903210857 91 78 2.0 2.0 0.00 0.00 0.00 62 980.3
20260903210356 91 156 4.0 4.0 0.00 0.00 0.00 63 980.6
20260903205856 93 167 2.0 4.0 0.00 0.00 0.00 62 980.7
20260903205355 93 204 2.0 3.0 0.00 0.00 0.00 66 980.8
20260903204850 92 86 1.0 3.0 0.00 0.00 0.00 69 980.8
20260903204347 90 110 0.0 1.0 0.00 0.00 0.00 65 980.9
20260903203842 91 107 3.0 3.0 0.00 0.00 0.00 66 981.0
20260903203338 92 201 1.0 4.0 0.00 0.00 0.00 63 980.8
20260903202837 93 330 0.0 2.0 0.00 0.00 0.00 61 981.1
20260903202333 93 113 1.0 3.0 0.00 0.00 0.00 62 980.9
20260903201832 93 109 1.0 3.0 0.00 0.00 0.00 63 981.1
20260903201328 93 89 3.0 4.0 0.00 0.00 0.00 62 981.3
20260903200826 93 153 0.0 3.0 0.00 0.00 0.00 61 981.3
20260903200322 92 159 0.0 1.0 0.00 0.00 0.00 68 981.4
20260903195817 91 123 1.0 1.0 0.00 0.00 0.00 70 981.5
20260903195313 93 215 0.0 4.0 0.00 0.00 0.00 61 981.5
20260903194808 93 145 3.0 4.0 0.00 0.00 0.00 62 981.4
20260903194304 93 133 3.0 4.0 0.00 0.00 0.00 65 981.7
20260903193800 93 51 1.0 2.0 0.00 0.00 0.00 62 981.8
20260903193255 92 55 2.0 3.0 0.00 0.00 0.00 62 981.8
20260903192751 92 287 4.0 4.0 0.00 0.00 0.00 62 981.9
20260903192246 91 251 3.0 3.0 0.00 0.00 0.00 63 981.8
20260903191743 91 144 4.0 4.0 0.00 0.00 0.00 61 981.9
20260903191238 92 181 2.0 6.0 0.00 0.00 0.00 63 981.9
20260903190733 93 115 2.0 6.0 0.00 0.00 0.00 63 982.1
20260903190232 92 109 2.0 6.0 0.00 0.00 0.00 62 982.1
20260903185727 91 331 2.0 2.0 0.00 0.00 0.00 67 982.3
20260903185221 91 281 0.0 1.0 0.00 0.00 0.00 70 982.4
20260903184718 91 140 2.0 3.0 0.00 0.00 0.00 66 982.4
20260903184214 92 274 2.0 3.0 0.00 0.00 0.00 65 982.4
20260903183714 93 101 3.0 4.0 0.00 0.00 0.00 63 982.5
20260903183208 93 186 2.0 2.0 0.00 0.00 0.00 61 982.7
20260903182707 92 149 1.0 2.0 0.00 0.00 0.00 62 982.7
20260903182204 92 110 3.0 3.0 0.00 0.00 0.00 63 982.7
20260903181702 92 214 1.0 2.0 0.00 0.00 0.00 62 982.5
20260903181156 91 213 3.0 4.0 0.00 0.00 0.00 65 982.6
20260903180652 91 44 4.0 4.0 0.00 0.00 0.00 66 982.6
20260903180152 91 7 1.0 4.0 0.00 0.00 0.00 64 982.5
20260903175650 90 36 0.0 1.0 0.00 0.00 0.00 66 982.5
20260903175145 91 333 1.0 2.0 0.00 0.00 0.00 64 982.7
20260903174645 91 332 0.0 6.0 0.00 0.00 0.00 65 982.8
20260903174140 91 113 2.0 4.0 0.00 0.00 0.00 65 982.8
20260903173635 92 237 2.0 2.0 0.00 0.00 0.00 66 982.8
20260903173131 91 107 1.0 2.0 0.00 0.00 0.00 66 982.9
20260903172625 91 63 1.0 2.0 0.00 0.00 0.00 66 982.9
20260903172120 91 158 1.0 3.0 0.00 0.00 0.00 65 982.9
20260903171620 91 199 3.0 6.0 0.00 0.00 0.00 68 983.0
20260903171116 91 73 1.0 4.0 0.00 0.00 0.00 67 983.0
20260903170615 90 104 1.0 4.0 0.00 0.00 0.00 69 983.0
20260903170111 90 110 2.0 4.0 0.00 0.00 0.00 69 983.0
20260903165608 90 276 2.0 4.0 0.00 0.00 0.00 68 983.3
20260903165104 90 133 1.0 3.0 0.00 0.00 0.00 68 983.1
20260903164559 90 327 2.0 3.0 0.00 0.00 0.00 67 983.4
20260903164054 90 69 3.0 4.0 0.00 0.00 0.00 68 983.3
20260903163549 90 171 1.0 2.0 0.00 0.00 0.00 72 983.4
20260903163045 90 116 2.0 3.0 0.00 0.00 0.00 69 983.4
20260903162541 89 159 4.0 4.0 0.00 0.00 0.00 70 983.4
20260903162037 89 146 4.0 8.0 0.00 0.00 0.00 71 983.5
20260903161532 89 112 3.0 4.0 0.00 0.00 0.00 70 983.7
20260903161028 89 172 4.0 6.0 0.00 0.00 0.00 72 983.5
20260903160527 89 115 3.0 4.0 0.00 0.00 0.00 70 983.5
20260903160021 89 115 1.0 6.0 0.00 0.00 0.00 71 983.6
20260903155520 88 112 4.0 6.0 0.00 0.00 0.00 73 983.6
20260903155016 89 108 4.0 6.0 0.00 0.00 0.00 70 984.0
20260903154512 88 119 2.0 4.0 0.00 0.00 0.00 72 983.8
20260903154008 88 121 3.0 6.0 0.00 0.00 0.00 73 983.9
20260903153502 88 109 2.0 4.0 0.00 0.00 0.00 73 983.8
20260903152959 88 84 0.0 4.0 0.00 0.00 0.00 73 983.9
20260903152454 88 110 2.0 4.0 0.00 0.00 0.00 74 983.8
20260903151951 87 107 2.0 3.0 0.00 0.00 0.00 76 983.9
20260903151450 87 119 2.0 6.0 0.00 0.00 0.00 75 983.7
20260903150945 86 114 1.0 3.0 0.00 0.00 0.00 77 983.9
20260903150439 86 111 1.0 3.0 0.00 0.00 0.00 77 983.8
20260903145934 86 75 2.0 2.0 0.00 0.00 0.00 77 983.9
20260903145430 85 117 3.0 4.0 0.00 0.00 0.00 77 983.9
20260903144930 85 104 2.0 3.0 0.00 0.00 0.00 77 983.9
20260903144429 85 105 2.0 3.0 0.00 0.00 0.00 78 983.8
20260903143925 85 118 2.0 2.0 0.00 0.00 0.00 78 984.0
20260903143421 84 118 1.0 3.0 0.00 0.00 0.00 80 983.9
20260903142917 84 115 1.0 3.0 0.00 0.00 0.00 80 983.9
20260903142412 84 239 0.0 2.0 0.00 0.00 0.00 77 983.9
20260903141908 84 105 2.0 3.0 0.00 0.00 0.00 81 983.8